Time,TemperatureF,DewpointF,PressureIn,WindDirection,WindDirectionDegrees,WindSpeedMPH,WindSpeedGustMPH,Humidity,HourlyPrecipIn,Conditions,Clouds,dailyrainin,SoftwareType,DateUTC
2013-04-13 00:03:00,50.0,48.0,29.93,West,276,0.0,0.0,93,0.00,,,0.06,,2013-04-13 05:03:00,
2013-04-13 00:12:00,50.0,48.0,29.93,West,276,0.0,0.0,93,0.00,,,0.06,,2013-04-13 05:12:00,
2013-04-13 00:22:00,50.0,48.0,29.93,West,276,0.0,0.0,93,0.00,,,0.06,,2013-04-13 05:22:00,
2013-04-13 00:32:00,50.0,48.0,29.93,West,276,0.0,0.0,92,0.00,,,0.06,,2013-04-13 05:32:00,
2013-04-13 00:43:00,50.0,48.0,29.93,West,276,0.0,0.0,92,0.00,,,0.06,,2013-04-13 05:43:00,
2013-04-13 00:52:00,50.0,48.0,29.93,West,276,0.0,0.0,93,0.00,,,0.06,,2013-04-13 05:52:00,
2013-04-13 01:02:00,49.0,47.0,29.93,West,276,0.0,0.0,92,0.00,,,0.06,,2013-04-13 06:02:00,
2013-04-13 01:12:00,49.0,47.0,29.93,West,276,0.0,0.0,92,0.00,,,0.06,,2013-04-13 06:12:00,
2013-04-13 01:24:00,49.0,47.0,29.93,West,276,0.0,0.0,92,0.00,,,0.06,,2013-04-13 06:24:00,
2013-04-13 01:49:00,49.0,47.0,29.93,West,276,0.0,0.0,93,0.00,,,0.06,,2013-04-13 06:49:00,
2013-04-13 02:07:00,49.0,47.0,29.94,West,277,0.0,0.0,93,0.00,,,0.06,,2013-04-13 07:07:00,
2013-04-13 02:15:00,49.0,47.0,29.94,West,277,0.0,0.0,93,0.00,,,0.06,,2013-04-13 07:15:00,
2013-04-13 02:24:00,49.0,47.0,29.94,West,277,0.0,0.0,93,0.00,,,0.06,,2013-04-13 07:24:00,
2013-04-13 02:35:00,48.0,46.0,29.93,West,277,0.0,0.0,94,0.00,,,0.00,,2013-04-13 07:35:00,
2013-04-13 02:46:00,48.0,46.0,29.93,West,277,0.0,0.0,94,0.00,,,0.00,,2013-04-13 07:46:00,
2013-04-13 02:57:00,47.0,45.0,29.93,West,277,0.0,0.0,94,0.00,,,0.00,,2013-04-13 07:57:00,
2013-04-13 03:07:00,47.0,45.0,29.94,West,277,0.0,0.0,94,0.00,,,0.00,,2013-04-13 08:07:00,
2013-04-13 03:25:00,47.0,46.0,29.93,West,277,0.0,0.0,95,0.00,,,0.00,,2013-04-13 08:25:00,
2013-04-13 03:35:00,47.0,46.0,29.93,West,277,0.0,0.0,95,0.00,,,0.00,,2013-04-13 08:35:00,
2013-04-13 03:46:00,47.0,46.0,29.93,West,277,0.0,0.0,95,0.00,,,0.00,,2013-04-13 08:46:00,
2013-04-13 04:05:00,47.0,46.0,29.93,West,277,0.0,0.0,95,0.00,,,0.00,,2013-04-13 09:05:00,
2013-04-13 04:15:00,47.0,46.0,29.93,West,277,0.0,0.0,95,0.00,,,0.00,,2013-04-13 09:15:00,
2013-04-13 04:25:00,47.0,46.0,29.93,West,277,0.0,0.0,96,0.00,,,0.00,,2013-04-13 09:25:00,
2013-04-13 04:38:00,47.0,46.0,29.94,West,277,0.0,0.0,95,0.00,,,0.00,,2013-04-13 09:38:00,
2013-04-13 04:51:00,47.0,46.0,29.94,West,277,0.0,0.0,95,0.00,,,0.00,,2013-04-13 09:51:00,
2013-04-13 05:05:00,47.0,46.0,29.95,West,277,0.0,0.0,95,0.00,,,0.00,,2013-04-13 10:05:00,
2013-04-13 05:16:00,47.0,46.0,29.94,West,277,0.0,0.0,95,0.00,,,0.00,,2013-04-13 10:16:00,
2013-04-13 05:25:00,47.0,46.0,29.94,West,277,0.0,0.0,95,0.00,,,0.00,,2013-04-13 10:25:00,
2013-04-13 05:37:00,47.0,46.0,29.94,West,276,0.0,0.0,95,0.00,,,0.00,,2013-04-13 10:37:00,
2013-04-13 05:48:00,47.0,46.0,29.94,West,276,0.0,0.0,95,0.00,,,0.00,,2013-04-13 10:48:00,
2013-04-13 05:54:00,47.0,45.0,29.95,SSE,160,0.0,0.0,94,0.00,,,0.00,,2013-04-13 10:54:00,
2013-04-13 06:08:00,47.0,45.0,29.96,SSE,159,0.0,0.0,94,0.00,,,0.00,,2013-04-13 11:08:00,
2013-04-13 06:14:00,47.0,45.0,29.96,SSE,159,0.0,0.0,94,0.00,,,0.00,,2013-04-13 11:14:00,
2013-04-13 06:24:00,46.0,45.0,29.96,SSE,158,0.0,0.0,95,0.00,,,0.00,,2013-04-13 11:24:00,
2013-04-13 06:45:00,46.0,45.0,29.96,SSE,158,0.0,0.0,95,0.00,,,0.00,,2013-04-13 11:45:00,
2013-04-13 06:53:00,46.0,45.0,29.97,SSE,158,0.0,0.0,95,0.00,,,0.00,,2013-04-13 11:53:00,
2013-04-13 07:08:00,45.0,44.0,29.97,SSE,158,0.0,0.0,95,0.00,,,0.00,,2013-04-13 12:08:00,
2013-04-13 07:25:00,46.0,45.0,29.98,SSE,158,0.0,0.0,96,0.00,,,0.00,,2013-04-13 12:25:00,
2013-04-13 07:37:00,48.0,47.0,29.99,SSE,158,0.0,0.0,96,0.00,,,0.00,,2013-04-13 12:37:00,
2013-04-13 07:48:00,48.0,47.0,29.99,SSE,158,0.0,0.0,96,0.00,,,0.00,,2013-04-13 12:48:00,
2013-04-13 07:54:00,52.0,50.0,29.99,SSE,158,0.0,0.0,93,0.00,,,0.00,,2013-04-13 12:54:00,
2013-04-13 08:08:00,55.0,50.0,29.99,SSE,158,0.0,0.0,84,0.00,,,0.00,,2013-04-13 13:08:00,
2013-04-13 08:16:00,55.0,50.0,29.99,SSE,158,0.0,0.0,84,0.00,,,0.00,,2013-04-13 13:16:00,
2013-04-13 08:30:00,58.0,50.0,30.00,SSE,165,0.0,1.0,76,0.00,,,0.00,,2013-04-13 13:30:00,
2013-04-13 08:35:00,59.0,50.0,30.01,SSE,165,0.0,3.0,72,0.00,,,0.00,,2013-04-13 13:35:00,
2013-04-13 08:48:00,59.0,50.0,30.01,SSE,165,0.0,3.0,72,0.00,,,0.00,,2013-04-13 13:48:00,
2013-04-13 08:54:00,61.0,50.0,30.02,SE,135,0.0,2.0,66,0.00,,,0.00,,2013-04-13 13:54:00,
2013-04-13 09:05:00,62.0,51.0,30.02,SSE,148,0.0,4.0,68,0.00,,,0.00,,2013-04-13 14:05:00,
2013-04-13 09:15:00,62.0,51.0,30.02,SSE,148,0.0,4.0,68,0.00,,,0.00,,2013-04-13 14:15:00,
2013-04-13 09:24:00,62.0,50.0,30.01,SE,125,1.0,4.0,65,0.00,,,0.00,,2013-04-13 14:24:00,
2013-04-13 09:39:00,63.0,51.0,30.02,ENE,61,1.0,7.0,64,0.00,,,0.00,,2013-04-13 14:39:00,
2013-04-13 09:47:00,63.0,51.0,30.02,ENE,61,1.0,7.0,64,0.00,,,0.00,,2013-04-13 14:47:00,
2013-04-13 09:55:00,65.0,51.0,30.01,NE,46,1.0,6.0,60,0.00,,,0.00,,2013-04-13 14:55:00,
2013-04-13 10:05:00,66.0,49.0,30.01,East,94,2.0,6.0,55,0.00,,,0.00,,2013-04-13 15:05:00,
2013-04-13 10:15:00,66.0,49.0,30.01,East,94,2.0,6.0,55,0.00,,,0.00,,2013-04-13 15:15:00,
2013-04-13 10:29:00,67.0,49.0,30.01,ESE,108,2.0,7.0,53,0.00,,,0.00,,2013-04-13 15:29:00,
2013-04-13 10:37:00,68.0,50.0,30.01,NE,49,2.0,5.0,53,0.00,,,0.00,,2013-04-13 15:37:00,
2013-04-13 10:44:00,68.0,50.0,30.01,NE,49,2.0,5.0,53,0.00,,,0.00,,2013-04-13 15:44:00,
2013-04-13 10:55:00,69.0,48.0,30.01,East,79,2.0,6.0,47,0.00,,,0.00,,2013-04-13 15:55:00,
2013-04-13 11:08:00,69.0,48.0,30.01,ENE,60,2.0,9.0,47,0.00,,,0.00,,2013-04-13 16:08:00,
2013-04-13 11:16:00,69.0,48.0,30.01,ENE,60,2.0,9.0,47,0.00,,,0.00,,2013-04-13 16:16:00,
2013-04-13 11:25:00,69.0,48.0,30.02,East,101,2.0,6.0,47,0.00,,,0.00,,2013-04-13 16:25:00,
2013-04-13 11:36:00,71.0,48.0,30.01,ESE,117,2.0,4.0,44,0.00,,,0.00,,2013-04-13 16:36:00,
2013-04-13 11:47:00,71.0,48.0,30.01,ESE,117,2.0,4.0,44,0.00,,,0.00,,2013-04-13 16:47:00,
2013-04-13 11:54:00,70.0,47.0,30.01,ENE,71,0.0,9.0,44,0.00,,,0.00,,2013-04-13 16:54:00,
2013-04-13 12:08:00,71.0,48.0,30.00,SW,229,0.0,5.0,44,0.00,,,0.00,,2013-04-13 17:08:00,
2013-04-13 12:22:00,71.0,48.0,30.00,SW,229,0.0,5.0,44,0.00,,,0.00,,2013-04-13 17:22:00,
2013-04-13 12:38:00,74.0,46.0,29.99,SW,220,0.0,4.0,37,0.00,,,0.00,,2013-04-13 17:38:00,
2013-04-13 12:44:00,74.0,46.0,29.99,SW,220,0.0,4.0,37,0.00,,,0.00,,2013-04-13 17:44:00,
2013-04-13 13:07:00,75.0,45.0,29.98,SE,142,1.0,7.0,35,0.00,,,0.00,,2013-04-13 18:07:00,
2013-04-13 13:15:00,75.0,45.0,29.98,SE,142,1.0,7.0,35,0.00,,,0.00,,2013-04-13 18:15:00,
2013-04-13 13:25:00,75.0,47.0,29.98,ESE,122,3.0,7.0,37,0.00,,,0.00,,2013-04-13 18:25:00,
2013-04-13 13:33:00,76.0,46.0,29.98,SSW,211,1.0,6.0,35,0.00,,,0.00,,2013-04-13 18:33:00,
2013-04-13 13:42:00,76.0,46.0,29.98,SSW,211,1.0,6.0,35,0.00,,,0.00,,2013-04-13 18:42:00,
2013-04-13 13:52:00,77.0,47.0,29.97,SSW,197,2.0,5.0,35,0.00,,,0.00,,2013-04-13 18:52:00,
2013-04-13 14:03:00,78.0,46.0,29.97,East,99,3.0,5.0,32,0.00,,,0.00,,2013-04-13 19:03:00,
2013-04-13 14:12:00,78.0,46.0,29.97,East,99,3.0,5.0,32,0.00,,,0.00,,2013-04-13 19:12:00,
2013-04-13 14:22:00,79.0,47.0,29.96,West,265,0.0,5.0,32,0.00,,,0.00,,2013-04-13 19:22:00,
2013-04-13 14:33:00,78.0,47.0,29.96,South,172,1.0,5.0,34,0.00,,,0.00,,2013-04-13 19:33:00,
2013-04-13 14:42:00,78.0,47.0,29.96,South,172,1.0,5.0,34,0.00,,,0.00,,2013-04-13 19:42:00,
2013-04-13 14:52:00,79.0,46.0,29.95,East,85,1.0,5.0,31,0.00,,,0.00,,2013-04-13 19:52:00,
2013-04-13 15:02:00,78.0,45.0,29.94,ESE,116,1.0,7.0,31,0.00,,,0.00,,2013-04-13 20:02:00,
2013-04-13 15:13:00,78.0,45.0,29.94,ESE,116,1.0,7.0,31,0.00,,,0.00,,2013-04-13 20:13:00,
2013-04-13 15:22:00,79.0,47.0,29.94,SE,132,0.0,3.0,32,0.00,,,0.00,,2013-04-13 20:22:00,
2013-04-13 15:32:00,79.0,43.0,29.93,ENE,58,1.0,5.0,28,0.00,,,0.00,,2013-04-13 20:32:00,
2013-04-13 15:42:00,79.0,43.0,29.93,ENE,58,1.0,5.0,28,0.00,,,0.00,,2013-04-13 20:42:00,
2013-04-13 15:52:00,79.0,44.0,29.93,ESE,117,0.0,3.0,29,0.00,,,0.00,,2013-04-13 20:52:00,
2013-04-13 16:02:00,79.0,45.0,29.93,ESE,109,1.0,3.0,30,0.00,,,0.00,,2013-04-13 21:02:00,
2013-04-13 16:12:00,79.0,45.0,29.93,ESE,109,1.0,3.0,30,0.00,,,0.00,,2013-04-13 21:12:00,
2013-04-13 16:22:00,80.0,44.0,29.93,SW,224,0.0,4.0,28,0.00,,,0.00,,2013-04-13 21:22:00,
2013-04-13 16:33:00,81.0,42.0,29.93,ENE,72,1.0,2.0,25,0.00,,,0.00,,2013-04-13 21:33:00,
2013-04-13 16:43:00,81.0,42.0,29.93,ENE,72,1.0,2.0,25,0.00,,,0.00,,2013-04-13 21:43:00,
2013-04-13 16:52:00,80.0,43.0,29.93,ENE,69,1.0,2.0,27,0.00,,,0.00,,2013-04-13 21:52:00,
2013-04-13 17:03:00,80.0,44.0,29.93,West,266,0.0,2.0,28,0.00,,,0.00,,2013-04-13 22:03:00,
2013-04-13 17:13:00,80.0,44.0,29.93,West,266,0.0,2.0,28,0.00,,,0.00,,2013-04-13 22:13:00,
2013-04-13 17:22:00,79.0,42.0,29.93,SW,216,0.0,5.0,27,0.00,,,0.00,,2013-04-13 22:22:00,
2013-04-13 17:33:00,80.0,44.0,29.93,ESE,110,0.0,2.0,28,0.00,,,0.00,,2013-04-13 22:33:00,
2013-04-13 17:42:00,80.0,44.0,29.93,ESE,110,0.0,2.0,28,0.00,,,0.00,,2013-04-13 22:42:00,
2013-04-13 17:52:00,79.0,46.0,29.93,South,172,0.0,1.0,31,0.00,,,0.00,,2013-04-13 22:52:00,
2013-04-13 18:02:00,77.0,46.0,29.92,ESE,103,0.0,3.0,34,0.00,,,0.00,,2013-04-13 23:02:00,
2013-04-13 18:12:00,77.0,46.0,29.92,ESE,103,0.0,3.0,34,0.00,,,0.00,,2013-04-13 23:12:00,
2013-04-13 18:22:00,75.0,45.0,29.92,ENE,58,0.0,1.0,35,0.00,,,0.00,,2013-04-13 23:22:00,
2013-04-13 18:33:00,74.0,46.0,29.93,ENE,58,0.0,0.0,37,0.00,,,0.00,,2013-04-13 23:33:00,
2013-04-13 18:42:00,74.0,46.0,29.93,ENE,58,0.0,0.0,37,0.00,,,0.00,,2013-04-13 23:42:00,
2013-04-13 18:52:00,72.0,46.0,29.92,NE,56,0.0,0.0,40,0.00,,,0.00,,2013-04-13 23:52:00,
2013-04-13 19:03:00,71.0,47.0,29.92,NE,55,0.0,0.0,42,0.00,,,0.00,,2013-04-14 00:03:00,
2013-04-13 19:12:00,71.0,47.0,29.92,NE,55,0.0,0.0,42,0.00,,,0.00,,2013-04-14 00:12:00,
2013-04-13 19:22:00,69.0,47.0,29.92,NE,56,0.0,0.0,45,0.00,,,0.00,,2013-04-14 00:22:00,
2013-04-13 19:32:00,68.0,49.0,29.91,NE,56,0.0,0.0,50,0.00,,,0.00,,2013-04-14 00:32:00,
2013-04-13 19:42:00,68.0,49.0,29.91,NE,56,0.0,0.0,50,0.00,,,0.00,,2013-04-14 00:42:00,
2013-04-13 19:52:00,66.0,49.0,29.92,NE,56,0.0,0.0,54,0.00,,,0.00,,2013-04-14 00:52:00,
2013-04-13 20:02:00,64.0,50.0,29.91,NE,56,0.0,0.0,60,0.00,,,0.00,,2013-04-14 01:02:00,
2013-04-13 20:12:00,64.0,50.0,29.91,NE,56,0.0,0.0,60,0.00,,,0.00,,2013-04-14 01:12:00,
2013-04-13 20:22:00,63.0,50.0,29.91,NE,56,0.0,0.0,62,0.00,,,0.00,,2013-04-14 01:22:00,
2013-04-13 20:32:00,63.0,51.0,29.91,NE,56,0.0,0.0,65,0.00,,,0.00,,2013-04-14 01:32:00,
2013-04-13 20:42:00,63.0,51.0,29.91,NE,56,0.0,0.0,65,0.00,,,0.00,,2013-04-14 01:42:00,
2013-04-13 20:52:00,62.0,51.0,29.91,NE,56,0.0,0.0,66,0.00,,,0.00,,2013-04-14 01:52:00,
2013-04-13 21:02:00,61.0,50.0,29.91,NE,56,0.0,0.0,68,0.00,,,0.00,,2013-04-14 02:02:00,
2013-04-13 21:12:00,61.0,50.0,29.91,NE,56,0.0,0.0,68,0.00,,,0.00,,2013-04-14 02:12:00,
2013-04-13 21:22:00,60.0,51.0,29.92,NE,56,0.0,0.0,71,0.00,,,0.00,,2013-04-14 02:22:00,
2013-04-13 21:32:00,60.0,50.0,29.92,NE,56,0.0,0.0,70,0.00,,,0.00,,2013-04-14 02:32:00,
2013-04-13 21:42:00,60.0,50.0,29.92,NE,56,0.0,0.0,70,0.00,,,0.00,,2013-04-14 02:42:00,
2013-04-13 21:52:00,60.0,50.0,29.93,NE,56,0.0,0.0,70,0.00,,,0.00,,2013-04-14 02:52:00,
2013-04-13 22:03:00,61.0,52.0,29.93,NE,56,0.0,0.0,71,0.00,,,0.00,,2013-04-14 03:03:00,
2013-04-13 22:12:00,61.0,52.0,29.93,NE,56,0.0,0.0,71,0.00,,,0.00,,2013-04-14 03:12:00,
2013-04-13 22:22:00,61.0,51.0,29.94,NE,56,0.0,0.0,69,0.00,,,0.00,,2013-04-14 03:22:00,
2013-04-13 22:33:00,61.0,50.0,29.95,NE,56,0.0,0.0,67,0.00,,,0.00,,2013-04-14 03:33:00,
2013-04-13 22:42:00,61.0,50.0,29.95,NE,56,0.0,0.0,67,0.00,,,0.00,,2013-04-14 03:42:00,
2013-04-13 22:53:00,61.0,50.0,29.94,NE,56,0.0,0.0,68,0.00,,,0.00,,2013-04-14 03:53:00,
2013-04-13 23:03:00,60.0,50.0,29.94,NE,56,0.0,0.0,69,0.00,,,0.00,,2013-04-14 04:03:00,
2013-04-13 23:13:00,60.0,50.0,29.94,NE,56,0.0,0.0,69,0.00,,,0.00,,2013-04-14 04:13:00,
2013-04-13 23:23:00,60.0,51.0,29.94,NE,56,0.0,0.0,73,0.00,,,0.00,,2013-04-14 04:23:00,
2013-04-13 23:33:00,60.0,51.0,29.93,NE,56,0.0,0.0,72,0.00,,,0.00,,2013-04-14 04:33:00,
2013-04-13 23:43:00,60.0,51.0,29.93,NE,56,0.0,0.0,72,0.00,,,0.00,,2013-04-14 04:43:00,
2013-04-13 23:52:00,59.0,49.0,29.93,NE,56,0.0,0.0,70,0.00,,,0.00,,2013-04-14 04:52:00,